Weather in Mukhanovo

Russia / Samara Oblast     53°20′14″N   51°17′48″E
temp.,
°C
wind,
m/s
gust,
m/s
humid.,
%
clouds,
%
prec.,
mm/h
press.,
hPa
HPBL,
m
27 february, sat
sat2701:00−11sse101894100 3.1 1005556
04:00−8sse71394100 8.3 1002494
07:00−6s5895100 0.4 999253
10:00−2ssw269898 0.7 999237
13:00+1sw410100100 0.1 998431
16:00+1sw49100100 0.4 998392
19:000wsw4898100 1.3 997365
22:000wsw3699100 1.9 998234
28 february, sun
sun2801:00−4nw5897100 1.4 997218
04:00−10nnw5995100 2.1 999309
07:00−11nw51094100 0.5 1001386
10:00−12nw61093100 0.6 1003421
13:00−10nw6991100 0.1 1006532
16:00−11nw6991100 0.2 1008607
19:00−13nw5995100 0.3 1010390
22:00−14nw4895100 0.6 1013312
1 march, mon
mon101:00−15nw479596 0.2 1014249
04:00−16nw479593 0.3 1016238
07:00−20nw349674 0.0 101877
10:00−19nnw369437 0.0 1020232
13:00−16nw459243 0.0 1021316
16:00−16nw369253 0.0 1022320
19:00−20nw22977 0.0 102320
22:00−21w12993 0.0 102320
2 march, tue
tue201:00−22wsw239812 0.0 102220
04:00−21ssw34986 0.0 102042
07:00−18s589791 0.0 1017192
10:00−14ssw6109495 0.1 1014332
13:00−9ssw71294100 0.4 1011512
16:00−7ssw81394100 1.3 1008674
19:00−4ssw71395100 0.8 1004601
22:00−3ssw61196100 1.9 1003489
3 march, wed
wed301:00−2wsw4897100 1.3 1001297
04:00−4w479797 1.6 1000212
07:00−5w489689 0.1 1000228
10:00−5wsw599686 0.3 1001381
13:00−2nw71094100 1.1 1002865
16:00−3nw71193100 1.8 1003908
19:00−4nw51389100 0.1 1004484
22:00−5nw5129294 0.2 1007428